Time,TemperatureF,DewpointF,PressureIn,WindDirection,WindDirectionDegrees,WindSpeedMPH,WindSpeedGustMPH,Humidity,HourlyPrecipIn,Conditions,Clouds,dailyrainin,SoftwareType,DateUTC
2013-02-12 00:03:00,34.9,28.7,29.92,SE,135,2.5,4.0,78,0.00,,,0.00,WUHU216HW,2013-02-12 00:03:00,
2013-02-12 00:08:00,34.9,28.7,29.93,East,90,3.4,4.0,78,0.00,,,0.00,WUHU216HW,2013-02-12 00:08:00,
2013-02-12 00:13:00,34.9,28.7,29.93,ENE,68,1.1,3.4,78,0.00,,,0.00,WUHU216HW,2013-02-12 00:13:00,
2013-02-12 00:18:00,34.9,28.7,29.93,ESE,113,1.8,3.4,78,0.00,,,0.00,WUHU216HW,2013-02-12 00:18:00,
2013-02-12 00:23:00,34.9,28.7,29.93,ESE,113,1.6,1.8,78,0.00,,,0.00,WUHU216HW,2013-02-12 00:23:00,
2013-02-12 00:28:00,34.9,29.0,29.94,East,90,1.1,1.8,79,0.00,,,0.00,WUHU216HW,2013-02-12 00:28:00,
2013-02-12 00:33:00,34.9,28.7,29.93,ESE,113,0.4,1.6,78,0.00,,,0.00,WUHU216HW,2013-02-12 00:33:00,
2013-02-12 00:38:00,34.9,29.0,29.93,East,90,2.2,2.2,79,0.00,,,0.00,WUHU216HW,2013-02-12 00:38:00,
2013-02-12 00:43:00,34.9,29.0,29.93,SE,135,1.6,2.2,79,0.00,,,0.00,WUHU216HW,2013-02-12 00:43:00,
2013-02-12 00:48:00,34.9,28.7,29.93,ESE,113,0.9,1.6,78,0.00,,,0.00,WUHU216HW,2013-02-12 00:48:00,
2013-02-12 00:53:00,34.9,28.7,29.93,SE,135,1.3,1.6,78,0.00,,,0.00,WUHU216HW,2013-02-12 00:53:00,
2013-02-12 00:58:00,34.9,28.7,29.93,ESE,113,1.1,1.3,78,0.00,,,0.00,WUHU216HW,2013-02-12 00:58:00,
2013-02-12 01:03:00,35.1,28.9,29.93,East,90,1.8,1.8,78,0.00,,,0.00,WUHU216HW,2013-02-12 01:03:00,
2013-02-12 01:08:00,35.1,28.9,29.94,ESE,113,1.1,1.8,78,0.00,,,0.00,WUHU216HW,2013-02-12 01:08:00,
2013-02-12 01:13:00,35.3,29.1,29.93,SSE,158,4.0,4.0,78,0.00,,,0.00,WUHU216HW,2013-02-12 01:13:00,
2013-02-12 01:18:00,35.3,29.1,29.93,ESE,113,4.7,4.7,78,0.00,,,0.00,WUHU216HW,2013-02-12 01:18:00,
2013-02-12 01:23:00,35.3,29.1,29.93,ESE,113,1.3,4.7,78,0.00,,,0.00,WUHU216HW,2013-02-12 01:23:00,
2013-02-12 01:28:00,35.3,29.1,29.94,North,0,1.8,2.7,78,0.00,,,0.00,WUHU216HW,2013-02-12 01:28:00,
2013-02-12 01:33:00,35.3,29.1,29.94,SE,135,1.1,1.8,78,0.00,,,0.00,WUHU216HW,2013-02-12 01:33:00,
2013-02-12 01:38:00,35.3,29.1,29.94,NNW,338,0.7,1.8,78,0.00,,,0.00,WUHU216HW,2013-02-12 01:38:00,
2013-02-12 01:43:00,35.3,29.1,29.94,ENE,68,1.8,1.8,78,0.00,,,0.00,WUHU216HW,2013-02-12 01:43:00,
2013-02-12 01:48:00,35.3,29.1,29.94,ESE,113,1.3,1.8,78,0.00,,,0.00,WUHU216HW,2013-02-12 01:48:00,
2013-02-12 01:53:00,35.3,29.1,29.94,SE,135,4.0,4.0,78,0.00,,,0.00,WUHU216HW,2013-02-12 01:53:00,
2013-02-12 01:58:00,35.5,29.3,29.94,SE,135,4.5,4.5,78,0.00,,,0.00,WUHU216HW,2013-02-12 01:58:00,
2013-02-12 02:03:00,35.5,29.3,29.94,SE,135,3.4,4.5,78,0.00,,,0.00,WUHU216HW,2013-02-12 02:03:00,
2013-02-12 02:08:00,35.6,29.1,29.94,SE,135,4.0,4.5,77,0.00,,,0.00,WUHU216HW,2013-02-12 02:08:00,
2013-02-12 02:13:00,35.6,29.1,29.95,ENE,68,3.8,4.0,77,0.00,,,0.00,WUHU216HW,2013-02-12 02:13:00,
2013-02-12 02:18:00,35.6,29.1,29.95,ESE,113,4.5,4.5,77,0.00,,,0.00,WUHU216HW,2013-02-12 02:18:00,
2013-02-12 02:23:00,35.6,29.1,29.95,SE,135,1.6,4.5,77,0.00,,,0.00,WUHU216HW,2013-02-12 02:23:00,
2013-02-12 02:28:00,35.6,29.1,29.95,East,90,4.0,4.5,77,0.00,,,0.00,WUHU216HW,2013-02-12 02:28:00,
2013-02-12 02:33:00,35.6,29.1,29.95,ESE,113,2.5,4.0,77,0.00,,,0.00,WUHU216HW,2013-02-12 02:33:00,
2013-02-12 02:38:00,35.6,29.1,29.95,SE,135,2.0,4.7,77,0.00,,,0.00,WUHU216HW,2013-02-12 02:38:00,
2013-02-12 02:43:00,35.6,29.1,29.95,ESE,113,0.7,4.7,77,0.00,,,0.00,WUHU216HW,2013-02-12 02:43:00,
2013-02-12 02:48:00,35.6,29.1,29.95,SE,135,1.3,2.0,77,0.00,,,0.00,WUHU216HW,2013-02-12 02:48:00,
2013-02-12 02:53:00,35.6,29.1,29.95,ESE,113,1.1,2.2,77,0.00,,,0.00,WUHU216HW,2013-02-12 02:53:00,
2013-02-12 02:58:00,35.6,29.1,29.95,ENE,68,2.5,2.5,77,0.00,,,0.00,WUHU216HW,2013-02-12 02:58:00,
2013-02-12 03:03:00,35.6,29.1,29.95,East,90,1.6,2.5,77,0.00,,,0.00,WUHU216HW,2013-02-12 03:03:00,
2013-02-12 03:08:00,35.6,29.1,29.95,East,90,1.1,2.5,77,0.00,,,0.00,WUHU216HW,2013-02-12 03:08:00,
2013-02-12 03:13:00,35.6,29.1,29.95,ESE,113,0.7,1.6,77,0.00,,,0.00,WUHU216HW,2013-02-12 03:13:00,
2013-02-12 03:18:00,35.6,29.4,29.95,ENE,68,2.5,2.5,78,0.00,,,0.00,WUHU216HW,2013-02-12 03:18:00,
2013-02-12 03:23:00,35.6,29.1,29.95,ESE,113,1.6,2.5,77,0.00,,,0.00,WUHU216HW,2013-02-12 03:23:00,
2013-02-12 03:28:00,35.6,29.4,29.95,ESE,113,2.0,2.5,78,0.00,,,0.00,WUHU216HW,2013-02-12 03:28:00,
2013-02-12 03:33:00,35.6,29.4,29.95,ESE,113,3.1,3.1,78,0.00,,,0.00,WUHU216HW,2013-02-12 03:33:00,
2013-02-12 03:38:00,35.6,29.4,29.95,ESE,113,1.1,3.1,78,0.00,,,0.00,WUHU216HW,2013-02-12 03:38:00,
2013-02-12 03:43:00,35.8,29.3,29.95,SE,135,2.5,3.6,77,0.00,,,0.00,WUHU216HW,2013-02-12 03:43:00,
2013-02-12 03:49:00,35.8,29.3,29.96,ESE,113,2.0,3.6,77,0.00,,,0.00,WUHU216HW,2013-02-12 03:49:00,
2013-02-12 03:54:00,35.6,29.1,29.96,SE,135,1.8,2.5,77,0.00,,,0.00,WUHU216HW,2013-02-12 03:54:00,
2013-02-12 03:59:00,35.6,29.1,29.96,SE,135,1.8,2.5,77,0.00,,,0.00,WUHU216HW,2013-02-12 03:59:00,
2013-02-12 04:04:00,35.6,29.1,29.96,East,90,1.8,2.5,77,0.00,,,0.00,WUHU216HW,2013-02-12 04:04:00,
2013-02-12 04:09:00,35.6,29.1,29.96,East,90,2.0,2.0,77,0.00,,,0.00,WUHU216HW,2013-02-12 04:09:00,
2013-02-12 04:14:00,35.6,29.1,29.96,ESE,113,1.8,2.0,77,0.00,,,0.00,WUHU216HW,2013-02-12 04:14:00,
2013-02-12 04:19:00,35.6,29.1,29.96,NE,45,2.5,2.5,77,0.00,,,0.00,WUHU216HW,2013-02-12 04:19:00,
2013-02-12 04:24:00,35.6,29.1,29.96,SE,135,2.2,2.5,77,0.00,,,0.00,WUHU216HW,2013-02-12 04:24:00,
2013-02-12 04:29:00,35.6,29.1,29.96,East,90,1.6,6.0,77,0.00,,,0.00,WUHU216HW,2013-02-12 04:29:00,
2013-02-12 04:34:00,35.6,29.1,29.95,SSE,158,1.8,6.0,77,0.00,,,0.00,WUHU216HW,2013-02-12 04:34:00,
2013-02-12 04:39:00,35.5,29.3,29.95,SE,135,1.8,2.9,78,0.00,,,0.00,WUHU216HW,2013-02-12 04:39:00,
2013-02-12 04:44:00,35.6,29.4,29.96,ESE,113,1.8,2.9,78,0.00,,,0.00,WUHU216HW,2013-02-12 04:44:00,
2013-02-12 04:49:00,35.5,29.3,29.96,ESE,113,2.5,2.5,78,0.00,,,0.00,WUHU216HW,2013-02-12 04:49:00,
2013-02-12 04:54:00,35.5,29.3,29.96,ENE,68,1.3,3.6,78,0.00,,,0.00,WUHU216HW,2013-02-12 04:54:00,
2013-02-12 04:59:00,35.5,29.3,29.96,ESE,113,2.0,3.6,78,0.00,,,0.00,WUHU216HW,2013-02-12 04:59:00,
2013-02-12 05:04:00,35.5,29.3,29.96,SE,135,0.9,2.0,78,0.00,,,0.00,WUHU216HW,2013-02-12 05:04:00,
2013-02-12 05:09:00,35.6,29.4,29.96,ESE,113,3.6,3.6,78,0.00,,,0.00,WUHU216HW,2013-02-12 05:09:00,
2013-02-12 05:14:00,35.5,29.3,29.96,ESE,113,1.3,3.6,78,0.00,,,0.00,WUHU216HW,2013-02-12 05:14:00,
2013-02-12 05:19:00,35.5,29.3,29.96,SE,135,1.3,1.3,78,0.00,,,0.00,WUHU216HW,2013-02-12 05:19:00,
2013-02-12 05:24:00,35.5,29.3,29.97,SE,135,1.1,3.1,78,0.00,,,0.00,WUHU216HW,2013-02-12 05:24:00,
2013-02-12 05:29:00,35.5,29.3,29.97,ENE,68,2.5,3.1,78,0.00,,,0.00,WUHU216HW,2013-02-12 05:29:00,
2013-02-12 05:34:00,35.5,29.3,29.97,ENE,68,0.7,2.5,78,0.00,,,0.00,WUHU216HW,2013-02-12 05:34:00,
2013-02-12 05:39:00,35.5,29.3,29.97,SE,135,2.0,2.5,78,0.00,,,0.00,WUHU216HW,2013-02-12 05:39:00,
2013-02-12 05:44:00,35.5,29.3,29.98,SE,135,1.1,2.2,78,0.00,,,0.00,WUHU216HW,2013-02-12 05:44:00,
2013-02-12 05:49:00,35.5,29.3,29.97,East,90,0.7,2.0,78,0.00,,,0.00,WUHU216HW,2013-02-12 05:49:00,
2013-02-12 05:54:00,35.5,29.5,29.97,ESE,113,1.8,1.8,79,0.00,,,0.00,WUHU216HW,2013-02-12 05:54:00,
2013-02-12 05:59:00,35.3,29.3,29.97,SE,135,0.4,1.8,79,0.00,,,0.00,WUHU216HW,2013-02-12 05:59:00,
2013-02-12 06:04:00,35.3,29.3,29.98,East,90,0.7,1.8,79,0.00,,,0.00,WUHU216HW,2013-02-12 06:04:00,
2013-02-12 06:09:00,35.3,29.3,29.98,SSE,158,2.9,2.9,79,0.00,,,0.00,WUHU216HW,2013-02-12 06:09:00,
2013-02-12 06:14:00,35.3,29.3,29.98,ESE,113,1.3,2.9,79,0.00,,,0.00,WUHU216HW,2013-02-12 06:14:00,
2013-02-12 06:19:00,35.3,29.3,29.99,ESE,113,0.7,2.9,79,0.00,,,0.00,WUHU216HW,2013-02-12 06:19:00,
2013-02-12 06:24:00,35.3,29.3,29.99,ESE,113,0.4,1.8,79,0.00,,,0.00,WUHU216HW,2013-02-12 06:24:00,
2013-02-12 06:29:00,35.3,29.3,29.98,ESE,113,1.8,1.8,79,0.00,,,0.00,WUHU216HW,2013-02-12 06:29:00,
2013-02-12 06:34:00,35.3,29.3,29.99,ESE,113,1.1,1.8,79,0.00,,,0.00,WUHU216HW,2013-02-12 06:34:00,
2013-02-12 06:39:00,35.3,29.3,29.99,ESE,113,0.7,1.8,79,0.00,,,0.00,WUHU216HW,2013-02-12 06:39:00,
2013-02-12 06:44:00,35.3,29.3,29.99,SE,135,3.4,3.4,79,0.00,,,0.00,WUHU216HW,2013-02-12 06:44:00,
2013-02-12 06:49:00,35.3,29.3,29.99,East,90,1.1,3.4,79,0.00,,,0.00,WUHU216HW,2013-02-12 06:49:00,
2013-02-12 06:54:00,35.3,29.1,29.99,SE,135,2.9,2.9,78,0.00,,,0.00,WUHU216HW,2013-02-12 06:54:00,
2013-02-12 06:59:00,35.3,29.1,29.99,SSE,158,0.9,2.9,78,0.00,,,0.00,WUHU216HW,2013-02-12 06:59:00,
2013-02-12 07:04:00,35.1,28.9,29.99,ESE,113,2.0,2.9,78,0.00,,,0.00,WUHU216HW,2013-02-12 07:04:00,
2013-02-12 07:09:00,35.1,28.9,29.99,ESE,113,1.1,2.0,78,0.00,,,0.00,WUHU216HW,2013-02-12 07:09:00,
2013-02-12 07:14:00,35.1,28.9,29.99,ESE,113,0.7,2.0,78,0.00,,,0.00,WUHU216HW,2013-02-12 07:14:00,
2013-02-12 07:19:00,35.1,28.9,29.99,ESE,113,1.1,1.8,78,0.00,,,0.00,WUHU216HW,2013-02-12 07:19:00,
2013-02-12 07:24:00,35.3,29.1,30.00,East,90,1.1,1.8,78,0.00,,,0.00,WUHU216HW,2013-02-12 07:24:00,
2013-02-12 07:29:00,35.1,28.9,30.00,SE,135,0.2,1.8,78,0.00,,,0.00,WUHU216HW,2013-02-12 07:29:00,
2013-02-12 07:34:00,35.1,28.9,30.00,East,90,1.1,1.8,78,0.00,,,0.00,WUHU216HW,2013-02-12 07:34:00,
2013-02-12 07:39:00,35.3,29.1,30.00,SE,135,1.8,1.8,78,0.00,,,0.00,WUHU216HW,2013-02-12 07:39:00,
2013-02-12 07:44:00,35.1,28.9,30.00,ESE,113,0.4,1.8,78,0.00,,,0.00,WUHU216HW,2013-02-12 07:44:00,
2013-02-12 07:49:00,35.3,29.1,30.00,ESE,113,0.4,1.8,78,0.00,,,0.00,WUHU216HW,2013-02-12 07:49:00,
2013-02-12 07:54:00,35.3,29.1,30.01,SE,135,2.5,2.5,78,0.00,,,0.00,WUHU216HW,2013-02-12 07:54:00,
2013-02-12 07:59:00,35.3,29.1,30.01,SE,135,2.7,2.7,78,0.00,,,0.00,WUHU216HW,2013-02-12 07:59:00,
2013-02-12 08:04:00,35.3,29.1,30.01,ESE,113,1.6,2.7,78,0.00,,,0.00,WUHU216HW,2013-02-12 08:04:00,
2013-02-12 08:09:00,35.3,29.1,30.01,ESE,113,1.8,2.7,78,0.00,,,0.00,WUHU216HW,2013-02-12 08:09:00,
2013-02-12 08:14:00,35.3,29.1,30.01,East,90,0.4,2.5,78,0.00,,,0.00,WUHU216HW,2013-02-12 08:14:00,
2013-02-12 08:19:00,35.5,29.3,30.02,ESE,113,0.7,2.2,78,0.00,,,0.00,WUHU216HW,2013-02-12 08:19:00,
2013-02-12 08:24:00,35.5,29.3,30.02,SE,135,0.7,2.2,78,0.00,,,0.00,WUHU216HW,2013-02-12 08:24:00,
2013-02-12 08:29:00,35.5,29.3,30.02,ESE,113,1.1,1.3,78,0.00,,,0.00,WUHU216HW,2013-02-12 08:29:00,
2013-02-12 08:34:00,35.5,29.3,30.02,SE,135,1.1,1.3,78,0.00,,,0.00,WUHU216HW,2013-02-12 08:34:00,
2013-02-12 08:39:00,35.5,29.3,30.02,ESE,113,1.1,1.1,78,0.00,,,0.00,WUHU216HW,2013-02-12 08:39:00,
2013-02-12 08:44:00,35.5,28.9,30.02,SE,135,1.8,1.8,77,0.00,,,0.00,WUHU216HW,2013-02-12 08:44:00,
2013-02-12 08:49:00,35.6,29.4,30.02,ESE,113,4.0,4.0,78,0.00,,,0.00,WUHU216HW,2013-02-12 08:49:00,
2013-02-12 08:54:00,35.5,28.9,30.02,ESE,113,0.7,4.0,77,0.00,,,0.00,WUHU216HW,2013-02-12 08:54:00,
2013-02-12 08:59:00,35.6,29.1,30.02,ESE,113,1.1,4.0,77,0.00,,,0.00,WUHU216HW,2013-02-12 08:59:00,
2013-02-12 09:04:00,35.6,28.8,30.02,East,90,0.7,1.1,76,0.00,,,0.00,WUHU216HW,2013-02-12 09:04:00,
2013-02-12 09:09:00,35.8,29.0,30.02,East,90,1.1,1.1,76,0.00,,,0.00,WUHU216HW,2013-02-12 09:09:00,
2013-02-12 09:14:00,36.0,29.2,30.02,ESE,113,0.7,4.0,76,0.00,,,0.00,WUHU216HW,2013-02-12 09:14:00,
2013-02-12 09:19:00,36.2,29.0,30.02,NNE,23,1.6,4.0,75,0.00,,,0.00,WUHU216HW,2013-02-12 09:19:00,
2013-02-12 09:24:00,36.4,29.2,30.02,ESE,113,1.1,2.5,75,0.00,,,0.00,WUHU216HW,2013-02-12 09:24:00,
2013-02-12 09:29:00,36.4,29.2,30.02,ESE,113,0.4,1.6,75,0.00,,,0.00,WUHU216HW,2013-02-12 09:29:00,
2013-02-12 09:34:00,36.4,29.2,30.02,ESE,113,0.2,1.1,75,0.00,,,0.00,WUHU216HW,2013-02-12 09:34:00,
2013-02-12 09:39:00,36.7,29.5,30.02,SE,135,1.8,2.9,75,0.00,,,0.00,WUHU216HW,2013-02-12 09:39:00,
2013-02-12 09:44:00,36.9,29.7,30.03,ESE,113,0.9,2.9,75,0.00,,,0.00,WUHU216HW,2013-02-12 09:44:00,
2013-02-12 09:49:00,37.1,29.5,30.03,East,90,0.9,1.8,74,0.00,,,0.00,WUHU216HW,2013-02-12 09:49:00,
2013-02-12 09:54:00,37.1,29.5,30.03,East,90,0.7,1.1,74,0.00,,,0.00,WUHU216HW,2013-02-12 09:54:00,
2013-02-12 09:59:00,37.6,30.1,30.03,North,0,0.7,3.6,74,0.00,,,0.00,WUHU216HW,2013-02-12 09:59:00,
2013-02-12 10:04:00,37.8,30.0,30.04,NE,45,1.3,3.6,73,0.00,,,0.00,WUHU216HW,2013-02-12 10:04:00,
2013-02-12 10:09:00,37.8,30.0,30.04,SE,135,1.1,1.3,73,0.00,,,0.00,WUHU216HW,2013-02-12 10:09:00,
2013-02-12 10:14:00,38.2,30.2,30.04,ESE,113,1.1,1.8,73,0.00,,,0.00,WUHU216HW,2013-02-12 10:14:00,
2013-02-12 10:19:00,38.0,29.4,30.04,North,0,0.9,1.8,71,0.00,,,0.00,WUHU216HW,2013-02-12 10:19:00,
2013-02-12 10:24:00,38.3,29.8,30.04,East,90,1.8,1.8,71,0.00,,,0.00,WUHU216HW,2013-02-12 10:24:00,
2013-02-12 10:29:00,38.2,29.6,30.04,ESE,113,0.7,1.8,71,0.00,,,0.00,WUHU216HW,2013-02-12 10:29:00,
2013-02-12 10:34:00,38.2,30.0,30.04,ESE,113,1.1,1.8,72,0.00,,,0.00,WUHU216HW,2013-02-12 10:34:00,
2013-02-12 10:39:00,38.0,30.1,30.04,ESE,113,0.0,3.1,73,0.00,,,0.00,WUHU216HW,2013-02-12 10:39:00,
2013-02-12 10:44:00,37.8,30.0,30.04,East,90,0.0,3.1,73,0.00,,,0.00,WUHU216HW,2013-02-12 10:44:00,
2013-02-12 10:49:00,37.8,30.0,30.04,SE,135,1.1,1.1,73,0.00,,,0.00,WUHU216HW,2013-02-12 10:49:00,
2013-02-12 10:54:00,37.8,30.2,30.04,ESE,113,0.4,1.8,74,0.00,,,0.00,WUHU216HW,2013-02-12 10:54:00,
2013-02-12 10:59:00,37.8,30.0,30.04,ESE,113,0.9,1.8,73,0.00,,,0.00,WUHU216HW,2013-02-12 10:59:00,
2013-02-12 11:04:00,37.8,30.2,30.04,East,90,2.0,2.0,74,0.00,,,0.00,WUHU216HW,2013-02-12 11:04:00,
2013-02-12 11:09:00,37.8,30.2,30.04,NNE,23,0.4,2.0,74,0.00,,,0.00,WUHU216HW,2013-02-12 11:09:00,
2013-02-12 11:14:00,37.8,30.2,30.03,ESE,113,1.3,1.3,74,0.00,,,0.00,WUHU216HW,2013-02-12 11:14:00,
2013-02-12 11:19:00,37.8,30.2,30.03,ESE,113,0.7,1.3,74,0.00,,,0.00,WUHU216HW,2013-02-12 11:19:00,
2013-02-12 11:24:00,37.8,30.6,30.04,East,90,0.4,1.3,75,0.00,,,0.00,WUHU216HW,2013-02-12 11:24:00,
2013-02-12 11:29:00,37.8,30.2,30.04,ESE,113,0.7,1.3,74,0.00,,,0.00,WUHU216HW,2013-02-12 11:29:00,
2013-02-12 11:34:00,37.8,30.2,30.04,East,90,1.6,1.6,74,0.00,,,0.00,WUHU216HW,2013-02-12 11:34:00,
2013-02-12 11:39:00,38.0,30.4,30.04,ESE,113,1.3,1.6,74,0.00,,,0.00,WUHU216HW,2013-02-12 11:39:00,
2013-02-12 11:44:00,38.0,30.8,30.03,SSE,158,0.9,1.3,75,0.00,,,0.00,WUHU216HW,2013-02-12 11:44:00,
2013-02-12 11:49:00,38.0,30.4,30.04,ESE,113,1.1,1.3,74,0.00,,,0.00,WUHU216HW,2013-02-12 11:49:00,
2013-02-12 11:54:00,38.2,31.0,30.04,East,90,2.0,3.6,75,0.00,,,0.00,WUHU216HW,2013-02-12 11:54:00,
2013-02-12 11:59:00,38.2,31.0,30.04,ESE,113,2.2,3.6,75,0.00,,,0.00,WUHU216HW,2013-02-12 11:59:00,
2013-02-12 12:04:00,38.0,30.4,30.04,East,90,1.3,2.2,74,0.00,,,0.00,WUHU216HW,2013-02-12 12:04:00,
2013-02-12 12:09:00,38.0,30.4,30.04,ESE,113,1.1,3.6,74,0.00,,,0.00,WUHU216HW,2013-02-12 12:09:00,
2013-02-12 12:14:00,38.0,30.4,30.04,SE,135,2.5,3.6,74,0.00,,,0.00,WUHU216HW,2013-02-12 12:14:00,
2013-02-12 12:19:00,38.0,30.4,30.04,ESE,113,0.9,2.5,74,0.00,,,0.00,WUHU216HW,2013-02-12 12:19:00,
2013-02-12 12:24:00,38.2,30.6,30.04,ESE,113,2.2,2.5,74,0.00,,,0.00,WUHU216HW,2013-02-12 12:24:00,
2013-02-12 12:29:00,38.5,31.2,30.04,SE,135,1.8,2.2,75,0.00,,,0.00,WUHU216HW,2013-02-12 12:29:00,
2013-02-12 12:35:00,38.5,31.0,30.04,SE,135,4.0,4.0,74,0.00,,,0.00,WUHU216HW,2013-02-12 12:35:00,
2013-02-12 12:40:00,38.7,31.2,30.04,SE,135,1.3,4.0,74,0.00,,,0.00,WUHU216HW,2013-02-12 12:40:00,
2013-02-12 12:45:00,38.5,31.0,30.04,SE,135,0.2,4.0,74,0.00,,,0.00,WUHU216HW,2013-02-12 12:45:00,
2013-02-12 12:50:00,38.5,31.0,30.04,SE,135,4.0,4.0,74,0.00,,,0.00,WUHU216HW,2013-02-12 12:50:00,
2013-02-12 12:55:00,38.3,30.8,30.04,SSE,158,2.7,4.0,74,0.00,,,0.00,WUHU216HW,2013-02-12 12:55:00,
2013-02-12 13:00:00,38.3,31.1,30.04,SSE,158,3.4,3.4,75,0.00,,,0.00,WUHU216HW,2013-02-12 13:00:00,
2013-02-12 13:05:00,38.2,30.6,30.04,ESE,113,4.0,4.0,74,0.00,,,0.00,WUHU216HW,2013-02-12 13:05:00,
2013-02-12 13:10:00,38.0,31.1,30.04,SE,135,1.1,4.0,76,0.00,,,0.00,WUHU216HW,2013-02-12 13:10:00,
2013-02-12 13:15:00,38.2,31.6,30.03,SE,135,0.4,3.1,77,0.00,,,0.00,WUHU216HW,2013-02-12 13:15:00,
2013-02-12 13:20:00,38.3,31.8,30.03,SE,135,0.2,1.1,77,0.00,,,0.00,WUHU216HW,2013-02-12 13:20:00,
2013-02-12 13:25:00,38.5,31.6,30.03,SE,135,0.2,0.9,76,0.00,,,0.00,WUHU216HW,2013-02-12 13:25:00,
2013-02-12 13:30:00,38.5,31.2,30.03,ESE,113,3.1,4.0,75,0.00,,,0.00,WUHU216HW,2013-02-12 13:30:00,
2013-02-12 13:35:00,38.5,31.2,30.03,ESE,113,0.4,4.0,75,0.00,,,0.00,WUHU216HW,2013-02-12 13:35:00,
2013-02-12 13:40:00,38.5,31.2,30.03,East,90,0.9,3.1,75,0.00,,,0.00,WUHU216HW,2013-02-12 13:40:00,
2013-02-12 13:45:00,38.5,31.2,30.03,ESE,113,3.4,3.4,75,0.00,,,0.00,WUHU216HW,2013-02-12 13:45:00,
2013-02-12 13:50:00,38.5,31.2,30.03,East,90,0.0,3.4,75,0.00,,,0.00,WUHU216HW,2013-02-12 13:50:00,
2013-02-12 13:55:00,38.5,31.2,30.03,SE,135,2.2,3.4,75,0.00,,,0.00,WUHU216HW,2013-02-12 13:55:00,
2013-02-12 14:00:00,38.5,31.6,30.02,SE,135,0.0,2.5,76,0.00,,,0.00,WUHU216HW,2013-02-12 14:00:00,
2013-02-12 14:05:00,38.5,31.6,30.03,SSE,158,2.0,2.5,76,0.00,,,0.00,WUHU216HW,2013-02-12 14:05:00,
2013-02-12 14:10:00,38.3,31.4,30.03,ESE,113,0.2,2.0,76,0.00,,,0.00,WUHU216HW,2013-02-12 14:10:00,
2013-02-12 14:15:00,38.0,31.4,30.03,SE,135,2.0,2.0,77,0.00,,,0.00,WUHU216HW,2013-02-12 14:15:00,
2013-02-12 14:20:00,38.0,31.1,30.03,ESE,113,1.1,2.0,76,0.00,,,0.00,WUHU216HW,2013-02-12 14:20:00,
2013-02-12 14:25:00,37.8,30.9,30.03,East,90,1.1,2.0,76,0.00,,,0.00,WUHU216HW,2013-02-12 14:25:00,
2013-02-12 14:30:00,37.8,31.2,30.03,SE,135,2.2,2.2,77,0.00,,,0.00,WUHU216HW,2013-02-12 14:30:00,
2013-02-12 14:35:00,37.8,31.2,30.03,SSE,158,2.7,2.7,77,0.00,,,0.00,WUHU216HW,2013-02-12 14:35:00,
2013-02-12 14:40:00,37.6,31.1,30.03,SE,135,1.6,2.7,77,0.00,,,0.00,WUHU216HW,2013-02-12 14:40:00,
2013-02-12 14:45:00,37.6,31.1,30.03,ESE,113,1.1,2.7,77,0.00,,,0.00,WUHU216HW,2013-02-12 14:45:00,
2013-02-12 14:50:00,37.6,31.1,30.03,SE,135,2.2,2.2,77,0.00,,,0.00,WUHU216HW,2013-02-12 14:50:00,
2013-02-12 14:55:00,37.8,31.2,30.03,ESE,113,1.3,2.2,77,0.00,,,0.00,WUHU216HW,2013-02-12 14:55:00,
2013-02-12 15:00:00,37.6,31.1,30.03,ESE,113,0.7,2.2,77,0.00,,,0.00,WUHU216HW,2013-02-12 15:00:00,
2013-02-12 15:05:00,37.6,31.4,30.03,East,90,1.3,4.0,78,0.00,,,0.00,WUHU216HW,2013-02-12 15:05:00,
2013-02-12 15:10:00,37.6,31.4,30.03,SE,135,1.1,4.0,78,0.00,,,0.00,WUHU216HW,2013-02-12 15:10:00,
2013-02-12 15:15:00,37.4,31.2,30.03,SE,135,2.2,2.2,78,0.00,,,0.00,WUHU216HW,2013-02-12 15:15:00,
2013-02-12 15:20:00,37.4,31.2,30.03,SE,135,1.1,2.2,78,0.00,,,0.00,WUHU216HW,2013-02-12 15:20:00,
2013-02-12 15:25:00,37.1,31.5,30.03,ESE,113,0.4,2.2,80,0.00,,,0.00,WUHU216HW,2013-02-12 15:25:00,
2013-02-12 15:30:00,36.9,31.3,30.03,ESE,113,0.9,0.9,80,0.00,,,0.00,WUHU216HW,2013-02-12 15:30:00,
2013-02-12 15:35:00,36.9,31.3,30.03,East,90,0.9,0.9,80,0.00,,,0.00,WUHU216HW,2013-02-12 15:35:00,
2013-02-12 15:40:00,36.9,31.3,30.03,East,90,0.0,0.9,80,0.00,,,0.00,WUHU216HW,2013-02-12 15:40:00,
2013-02-12 15:45:00,36.7,31.1,30.03,East,90,0.0,0.9,80,0.00,,,0.00,WUHU216HW,2013-02-12 15:45:00,
2013-02-12 15:50:00,36.7,31.1,30.03,East,90,0.0,0.0,80,0.00,,,0.00,WUHU216HW,2013-02-12 15:50:00,
2013-02-12 15:55:00,36.9,31.3,30.03,East,90,0.2,0.2,80,0.00,,,0.00,WUHU216HW,2013-02-12 15:55:00,
2013-02-12 16:00:00,36.9,31.6,30.04,ESE,113,1.1,1.1,81,0.00,,,0.00,WUHU216HW,2013-02-12 16:00:00,
2013-02-12 16:05:00,36.9,31.3,30.04,ESE,113,0.0,1.1,80,0.00,,,0.00,WUHU216HW,2013-02-12 16:05:00,
2013-02-12 16:10:00,36.9,31.6,30.04,SE,135,0.9,1.1,81,0.00,,,0.00,WUHU216HW,2013-02-12 16:10:00,
2013-02-12 16:15:00,36.9,31.3,30.04,ESE,113,0.4,3.4,80,0.00,,,0.00,WUHU216HW,2013-02-12 16:15:00,
2013-02-12 16:20:00,36.9,31.3,30.04,ESE,113,0.2,3.4,80,0.00,,,0.00,WUHU216HW,2013-02-12 16:20:00,
2013-02-12 16:25:00,36.9,31.3,30.04,ESE,113,0.0,0.4,80,0.00,,,0.00,WUHU216HW,2013-02-12 16:25:00,
2013-02-12 16:30:00,36.7,31.1,30.04,ESE,113,0.4,0.4,80,0.00,,,0.00,WUHU216HW,2013-02-12 16:30:00,
2013-02-12 16:35:00,36.7,31.1,30.04,ESE,113,0.2,0.4,80,0.00,,,0.00,WUHU216HW,2013-02-12 16:35:00,
2013-02-12 16:40:00,36.7,31.1,30.04,ESE,113,0.4,0.4,80,0.00,,,0.00,WUHU216HW,2013-02-12 16:40:00,
2013-02-12 16:45:00,36.7,31.4,30.04,ESE,113,0.2,0.4,81,0.00,,,0.00,WUHU216HW,2013-02-12 16:45:00,
2013-02-12 16:50:00,36.5,31.0,30.04,ESE,113,0.2,0.4,80,0.00,,,0.00,WUHU216HW,2013-02-12 16:50:00,
2013-02-12 16:55:00,36.5,31.0,30.04,SE,135,0.4,0.4,80,0.00,,,0.00,WUHU216HW,2013-02-12 16:55:00,
2013-02-12 17:00:00,36.5,31.2,30.03,ESE,113,1.1,1.1,81,0.00,,,0.00,WUHU216HW,2013-02-12 17:00:00,
2013-02-12 17:05:00,36.5,31.2,30.03,ESE,113,0.4,1.1,81,0.00,,,0.00,WUHU216HW,2013-02-12 17:05:00,
2013-02-12 17:10:00,36.5,31.0,30.03,ESE,113,0.0,3.1,80,0.00,,,0.00,WUHU216HW,2013-02-12 17:10:00,
2013-02-12 17:15:00,36.4,31.1,30.04,ESE,113,0.2,3.1,81,0.00,,,0.00,WUHU216HW,2013-02-12 17:15:00,
2013-02-12 17:20:00,36.4,31.1,30.04,ESE,113,1.1,1.1,81,0.00,,,0.00,WUHU216HW,2013-02-12 17:20:00,
2013-02-12 17:25:00,36.4,31.1,30.04,East,90,0.0,1.1,81,0.00,,,0.00,WUHU216HW,2013-02-12 17:25:00,
2013-02-12 17:30:00,36.4,31.1,30.05,East,90,0.0,1.1,81,0.00,,,0.00,WUHU216HW,2013-02-12 17:30:00,
2013-02-12 17:35:00,36.4,31.1,30.04,East,90,0.4,0.4,81,0.00,,,0.00,WUHU216HW,2013-02-12 17:35:00,
2013-02-12 17:40:00,36.2,30.9,30.05,East,90,0.0,0.4,81,0.00,,,0.00,WUHU216HW,2013-02-12 17:40:00,
2013-02-12 17:45:00,36.2,30.9,30.05,East,90,0.0,0.2,81,0.00,,,0.00,WUHU216HW,2013-02-12 17:45:00,
2013-02-12 17:50:00,36.2,30.9,30.05,East,90,0.2,0.2,81,0.00,,,0.00,WUHU216HW,2013-02-12 17:50:00,
2013-02-12 17:55:00,36.2,30.9,30.05,ESE,113,0.4,0.4,81,0.00,,,0.00,WUHU216HW,2013-02-12 17:55:00,
2013-02-12 18:00:00,36.2,30.9,30.06,ESE,113,0.2,0.4,81,0.00,,,0.00,WUHU216HW,2013-02-12 18:00:00,
2013-02-12 18:05:00,36.2,30.9,30.05,ESE,113,0.0,0.4,81,0.00,,,0.00,WUHU216HW,2013-02-12 18:05:00,
2013-02-12 18:10:00,36.2,30.9,30.05,ESE,113,0.0,0.2,81,0.00,,,0.00,WUHU216HW,2013-02-12 18:10:00,
2013-02-12 18:15:00,36.0,30.7,30.05,ESE,113,0.4,0.4,81,0.00,,,0.00,WUHU216HW,2013-02-12 18:15:00,
2013-02-12 18:20:00,36.0,30.7,30.05,ESE,113,0.2,0.4,81,0.00,,,0.00,WUHU216HW,2013-02-12 18:20:00,
2013-02-12 18:25:00,36.0,30.7,30.05,ESE,113,0.2,0.4,81,0.00,,,0.00,WUHU216HW,2013-02-12 18:25:00,
2013-02-12 18:30:00,36.0,30.7,30.05,ESE,113,0.0,0.2,81,0.00,,,0.00,WUHU216HW,2013-02-12 18:30:00,
2013-02-12 18:35:00,36.0,30.7,30.05,ESE,113,0.9,0.9,81,0.00,,,0.00,WUHU216HW,2013-02-12 18:35:00,
2013-02-12 18:40:00,36.0,30.4,30.05,ENE,68,0.4,1.6,80,0.00,,,0.00,WUHU216HW,2013-02-12 18:40:00,
2013-02-12 18:45:00,36.0,30.4,30.05,East,90,0.4,1.6,80,0.00,,,0.00,WUHU216HW,2013-02-12 18:45:00,
2013-02-12 18:50:00,36.0,30.7,30.05,East,90,0.7,1.1,81,0.00,,,0.00,WUHU216HW,2013-02-12 18:50:00,
2013-02-12 18:55:00,36.0,30.4,30.05,East,90,0.4,1.1,80,0.00,,,0.00,WUHU216HW,2013-02-12 18:55:00,
2013-02-12 19:00:00,36.0,30.7,30.05,East,90,0.4,1.1,81,0.00,,,0.00,WUHU216HW,2013-02-12 19:00:00,
2013-02-12 19:05:00,36.0,30.7,30.05,East,90,0.7,0.7,81,0.00,,,0.00,WUHU216HW,2013-02-12 19:05:00,
2013-02-12 19:10:00,36.0,30.7,30.05,ESE,113,1.1,1.1,81,0.00,,,0.00,WUHU216HW,2013-02-12 19:10:00,
2013-02-12 19:15:00,36.0,30.7,30.05,ESE,113,0.4,1.1,81,0.00,,,0.00,WUHU216HW,2013-02-12 19:15:00,
2013-02-12 19:20:00,35.8,30.5,30.05,ENE,68,0.4,1.3,81,0.00,,,0.00,WUHU216HW,2013-02-12 19:20:00,
2013-02-12 19:25:00,35.8,30.5,30.05,East,90,0.0,1.3,81,0.00,,,0.00,WUHU216HW,2013-02-12 19:25:00,
2013-02-12 19:30:00,35.8,30.5,30.05,SE,135,0.2,0.4,81,0.00,,,0.00,WUHU216HW,2013-02-12 19:30:00,
2013-02-12 19:35:00,35.8,30.5,30.05,SE,135,0.9,0.9,81,0.00,,,0.00,WUHU216HW,2013-02-12 19:35:00,
2013-02-12 19:40:00,35.8,30.5,30.06,East,90,0.2,0.9,81,0.00,,,0.00,WUHU216HW,2013-02-12 19:40:00,
2013-02-12 19:45:00,35.6,30.3,30.05,ESE,113,0.0,0.2,81,0.00,,,0.00,WUHU216HW,2013-02-12 19:45:00,
2013-02-12 19:50:00,35.6,30.3,30.05,ESE,113,1.3,1.3,81,0.00,,,0.00,WUHU216HW,2013-02-12 19:50:00,
2013-02-12 19:55:00,35.6,30.3,30.06,ESE,113,4.0,4.0,81,0.00,,,0.00,WUHU216HW,2013-02-12 19:55:00,
2013-02-12 20:01:00,35.6,30.3,30.06,ESE,113,1.3,4.0,81,0.00,,,0.00,WUHU216HW,2013-02-12 20:01:00,
2013-02-12 20:06:00,35.6,30.3,30.06,ESE,113,0.9,1.3,81,0.00,,,0.00,WUHU216HW,2013-02-12 20:06:00,
2013-02-12 20:11:00,35.6,30.3,30.06,ESE,113,0.4,0.9,81,0.00,,,0.00,WUHU216HW,2013-02-12 20:11:00,
2013-02-12 20:16:00,35.6,30.3,30.06,ESE,113,0.9,0.9,81,0.00,,,0.00,WUHU216HW,2013-02-12 20:16:00,
2013-02-12 20:21:00,35.6,30.3,30.06,East,90,0.0,0.9,81,0.00,,,0.00,WUHU216HW,2013-02-12 20:21:00,
2013-02-12 20:26:00,35.6,30.3,30.06,ESE,113,0.4,0.4,81,0.00,,,0.00,WUHU216HW,2013-02-12 20:26:00,
2013-02-12 20:31:00,35.6,30.3,30.06,ESE,113,0.0,0.4,81,0.00,,,0.00,WUHU216HW,2013-02-12 20:31:00,
2013-02-12 20:36:00,35.6,30.3,30.06,ESE,113,1.8,1.8,81,0.00,,,0.00,WUHU216HW,2013-02-12 20:36:00,
2013-02-12 20:41:00,35.6,30.3,30.06,East,90,1.8,2.0,81,0.00,,,0.00,WUHU216HW,2013-02-12 20:41:00,
2013-02-12 20:46:00,35.6,30.3,30.06,ESE,113,0.4,2.0,81,0.00,,,0.00,WUHU216HW,2013-02-12 20:46:00,
2013-02-12 20:51:00,35.6,30.3,30.06,ESE,113,0.4,1.8,81,0.00,,,0.00,WUHU216HW,2013-02-12 20:51:00,
2013-02-12 20:56:00,35.6,30.3,30.06,ESE,113,0.2,0.9,81,0.00,,,0.00,WUHU216HW,2013-02-12 20:56:00,
2013-02-12 21:01:00,35.6,30.3,30.06,East,90,0.0,0.9,81,0.00,,,0.00,WUHU216HW,2013-02-12 21:01:00,
2013-02-12 21:06:00,35.5,30.2,30.06,ESE,113,1.3,1.3,81,0.00,,,0.00,WUHU216HW,2013-02-12 21:06:00,
2013-02-12 21:11:00,35.6,30.6,30.06,ESE,113,0.7,1.3,82,0.00,,,0.00,WUHU216HW,2013-02-12 21:11:00,
2013-02-12 21:16:00,35.5,30.4,30.05,ESE,113,1.1,1.3,82,0.00,,,0.00,WUHU216HW,2013-02-12 21:16:00,
2013-02-12 21:21:00,35.5,30.4,30.05,East,90,0.4,1.1,82,0.00,,,0.00,WUHU216HW,2013-02-12 21:21:00,
2013-02-12 21:26:00,35.5,30.4,30.05,ESE,113,2.9,2.9,82,0.00,,,0.00,WUHU216HW,2013-02-12 21:26:00,
2013-02-12 21:31:00,35.5,30.4,30.05,ESE,113,1.1,2.9,82,0.00,,,0.00,WUHU216HW,2013-02-12 21:31:00,
2013-02-12 21:36:00,35.5,30.4,30.05,SE,135,1.3,2.9,82,0.00,,,0.00,WUHU216HW,2013-02-12 21:36:00,
2013-02-12 21:41:00,35.5,30.4,30.05,ESE,113,1.3,1.3,82,0.00,,,0.00,WUHU216HW,2013-02-12 21:41:00,
2013-02-12 21:46:00,35.3,30.2,30.06,East,90,2.5,2.5,82,0.00,,,0.00,WUHU216HW,2013-02-12 21:46:00,
2013-02-12 21:51:00,35.5,30.4,30.05,ESE,113,2.9,2.9,82,0.00,,,0.00,WUHU216HW,2013-02-12 21:51:00,
2013-02-12 21:56:00,35.5,30.4,30.05,ESE,113,0.2,2.9,82,0.00,,,0.00,WUHU216HW,2013-02-12 21:56:00,
2013-02-12 22:01:00,35.3,30.2,30.05,ESE,113,0.0,1.1,82,0.00,,,0.00,WUHU216HW,2013-02-12 22:01:00,
2013-02-12 22:06:00,35.3,30.0,30.05,ESE,113,2.0,2.0,81,0.00,,,0.00,WUHU216HW,2013-02-12 22:06:00,
2013-02-12 22:11:00,35.3,30.2,30.06,ESE,113,0.2,2.0,82,0.00,,,0.00,WUHU216HW,2013-02-12 22:11:00,
2013-02-12 22:16:00,35.3,30.2,30.06,ESE,113,0.9,2.0,82,0.00,,,0.00,WUHU216HW,2013-02-12 22:16:00,
2013-02-12 22:21:00,35.3,30.2,30.06,ESE,113,0.4,0.9,82,0.00,,,0.00,WUHU216HW,2013-02-12 22:21:00,
2013-02-12 22:26:00,35.3,30.2,30.05,ESE,113,0.9,0.9,82,0.00,,,0.00,WUHU216HW,2013-02-12 22:26:00,
2013-02-12 22:31:00,35.3,30.0,30.05,ESE,113,0.4,0.9,81,0.00,,,0.00,WUHU216HW,2013-02-12 22:31:00,
2013-02-12 22:36:00,35.3,30.0,30.06,ESE,113,0.2,0.9,81,0.00,,,0.00,WUHU216HW,2013-02-12 22:36:00,
2013-02-12 22:41:00,35.3,30.0,30.06,ESE,113,0.2,0.7,81,0.00,,,0.00,WUHU216HW,2013-02-12 22:41:00,
2013-02-12 22:46:00,35.3,30.0,30.06,East,90,0.7,0.7,81,0.00,,,0.00,WUHU216HW,2013-02-12 22:46:00,
2013-02-12 22:51:00,35.3,30.0,30.06,ESE,113,0.2,0.7,81,0.00,,,0.00,WUHU216HW,2013-02-12 22:51:00,
2013-02-12 22:56:00,35.3,30.0,30.06,ESE,113,0.7,0.7,81,0.00,,,0.00,WUHU216HW,2013-02-12 22:56:00,
2013-02-12 23:01:00,35.3,30.0,30.06,ESE,113,2.0,2.0,81,0.00,,,0.00,WUHU216HW,2013-02-12 23:01:00,
2013-02-12 23:06:00,35.3,30.0,30.06,SE,135,0.2,2.5,81,0.00,,,0.00,WUHU216HW,2013-02-12 23:06:00,
2013-02-12 23:11:00,35.1,29.8,30.06,SE,135,0.4,2.5,81,0.00,,,0.00,WUHU216HW,2013-02-12 23:11:00,
2013-02-12 23:16:00,35.1,29.8,30.05,SE,135,0.0,0.4,81,0.00,,,0.00,WUHU216HW,2013-02-12 23:16:00,
2013-02-12 23:21:00,35.1,29.8,30.05,ESE,113,0.4,0.4,81,0.00,,,0.00,WUHU216HW,2013-02-12 23:21:00,
2013-02-12 23:26:00,34.9,29.6,30.05,ESE,113,0.0,0.4,81,0.00,,,0.00,WUHU216HW,2013-02-12 23:26:00,
2013-02-12 23:31:00,34.9,29.6,30.06,ESE,113,0.4,0.4,81,0.00,,,0.00,WUHU216HW,2013-02-12 23:31:00,
2013-02-12 23:36:00,34.9,29.6,30.05,ESE,113,0.7,0.7,81,0.00,,,0.00,WUHU216HW,2013-02-12 23:36:00,
2013-02-12 23:41:00,34.9,29.6,30.05,ESE,113,0.2,0.7,81,0.00,,,0.00,WUHU216HW,2013-02-12 23:41:00,
2013-02-12 23:46:00,34.9,29.6,30.05,ESE,113,0.4,0.7,81,0.00,,,0.00,WUHU216HW,2013-02-12 23:46:00,
2013-02-12 23:51:00,34.9,29.6,30.05,ESE,113,0.7,0.7,81,0.00,,,0.00,WUHU216HW,2013-02-12 23:51:00,
2013-02-12 23:56:00,34.7,29.4,30.04,ESE,113,0.4,0.7,81,0.00,,,0.00,WUHU216HW,2013-02-12 23:56:00,